Location: Jonesport
(44.5330°N, 67.5990°W)
Time: 21:13:14
(UTC-04:00)

Iridium 35 - Visible Passes

Search period start: 22 May 2015 00:00
Search period end: 01 June 2015 00:00
Orbit: 776 x 779 km, 86.4° (Epoch: 22 May)

Date Brightness Start Highest point End Pass type
(mag) Time Alt. Az. Time Alt. Az. Time Alt. Az.
22 May 7.7 01:23:27 10° E 01:24:38 11° ENE 01:26:09 10° ENE visible
22 May 5.0 03:00:50 19° S 03:04:38 87° E 03:09:54 10° N visible
23 May 5.8 02:27:34 18° SSE 02:31:10 49° E 02:36:12 10° NNE visible
23 May 6.5 04:08:13 10° SW 04:12:15 22° WNW 04:16:09 10° NNW visible
24 May 6.7 01:54:18 14° SE 01:57:47 28° E 02:02:12 10° NNE visible
24 May 5.7 03:34:47 16° SW 03:38:24 37° W 03:43:13 10° NNW visible
25 May 7.4 01:21:33 10° ESE 01:24:30 16° ENE 01:27:40 10° NE visible
25 May 5.1 03:01:29 23° SSW 03:04:43 66° W 03:09:56 10° N visible
26 May 5.2 02:28:11 25° SSE 02:31:11 70° E 02:36:23 10° N visible
26 May 6.9 04:09:25 10° WSW 04:12:35 15° WNW 04:15:32 10° NW visible
27 May 6.1 01:54:52 21° SE 01:57:44 39° E 02:02:35 10° NNE visible
27 May 6.2 03:35:20 15° SW 03:38:38 27° WNW 03:42:59 10° NNW visible
28 May 6.9 01:21:32 14° ESE 01:24:24 22° E 01:28:26 10° NNE visible
28 May 5.4 03:02:01 24° SW 03:04:51 46° W 03:09:53 10° N visible
29 May 7.5 00:49:11 10° E 00:51:09 12° ENE 00:53:25 10° NE visible
29 May 5.0 02:28:40 31° S 02:31:14 83° W 02:36:29 10° N visible
29 May 7.1 04:11:35 10° W 04:12:58 11° WNW 04:14:01 10° NW visible
30 May 5.5 01:55:19 30° SSE 01:57:43 55° E 02:02:50 10° NNE visible
30 May 6.6 03:35:48 12° WSW 03:38:55 19° WNW 03:42:33 10° NNW visible
31 May 6.4 01:21:58 21° SE 01:24:20 31° E 01:28:54 10° NNE visible
31 May 5.9 03:02:26 21° SW 03:05:02 33° WNW 03:09:43 10° NNW visible
